Location: Monfort
(47.1967°N, 0.2115°W)
Time: 11:44:18
(UTC+00:00)

Geosat - Pass Details

Date: 24 October 2020
Orbit: 763 x 766 km, 108.0° (Epoch: 27 November)

Event Time Altitude Azimuth Distance (km) Brightness Sun altitude
Exits shadow 19:17:11 15° 20° (NNE) 1,957 6.0 -24.5°
Maximum altitude 19:21:14 61° 304° (WNW) 866 4.4 -25.1°
Drops below altitude 10° 19:26:11 10° 224° (SW) 2,300 6.9 -26.0°
Sets 19:28:28 0° 221° (SW) 3,223 7.6 -26.4°
